| time (UTC) | temp C | wind direction | speed KPH | gust KPH | rain 1hr cm | rain 24hr cm | rain mn cm | humidity % | barometer mb |
| 20260505214006 | 11 | 98 | 9.7 | 24.1 | 0.00 | 0.00 | 0.00 | 74 | 1014.8 |
| 20260505213006 | 11 | 39 | 8.0 | 19.3 | 0.00 | 0.00 | 0.00 | 74 | 1014.8 |
| 20260505210006 | 11 | 19 | 3.2 | 12.9 | 0.00 | 0.00 | 0.00 | 72 | 1014.8 |
| 20260505205006 | 11 | 34 | 1.6 | 6.4 | 0.00 | 0.00 | 0.00 | 73 | 1014.6 |
| 20260505204006 | 11 | 8 | 0.0 | 4.8 | 0.00 | 0.00 | 0.00 | 73 | 1014.5 |
| 20260505203006 | 11 | 320 | 1.6 | 4.8 | 0.00 | 0.00 | 0.00 | 73 | 1014.5 |
| 20260505202006 | 11 | 309 | 1.6 | 6.4 | 0.00 | 0.00 | 0.00 | 73 | 1014.4 |
| 20260505201006 | 12 | 327 | 1.6 | 3.2 | 0.00 | 0.00 | 0.00 | 72 | 1014.4 |
| 20260505200006 | 12 | 336 | 1.6 | 6.4 | 0.00 | 0.00 | 0.00 | 72 | 1014.3 |
| 20260505195014 | 12 | 288 | 1.6 | 8.0 | 0.00 | 0.00 | 0.00 | 72 | 1014.2 |
| 20260505194006 | 12 | 314 | 1.6 | 6.4 | 0.00 | 0.00 | 0.00 | 72 | 1014.1 |
| 20260505192006 | 12 | 331 | 3.2 | 9.7 | 0.00 | 0.00 | 0.00 | 70 | 1014.0 |
| 20260505191005 | 12 | 321 | 1.6 | 9.7 | 0.00 | 0.00 | 0.00 | 69 | 1014.1 |
| 20260505190006 | 12 | 331 | 1.6 | 8.0 | 0.00 | 0.00 | 0.00 | 68 | 1013.9 |
| 20260505184006 | 13 | 323 | 3.2 | 11.3 | 0.00 | 0.00 | 0.00 | 66 | 1013.7 |
| 20260505183008 | 13 | 331 | 3.2 | 14.5 | 0.00 | 0.00 | 0.00 | 66 | 1013.6 |
| 20260505182007 | 13 | 344 | 3.2 | 9.7 | 0.00 | 0.00 | 0.00 | 65 | 1013.7 |
| 20260505180008 | 13 | 351 | 3.2 | 9.7 | 0.00 | 0.00 | 0.00 | 64 | 1013.7 |
| 20260505174006 | 13 | 287 | 3.2 | 12.9 | 0.00 | 0.00 | 0.00 | 63 | 1013.7 |
| 20260505173033 | 13 | 302 | 3.2 | 9.7 | 0.00 | 0.00 | 0.00 | 63 | 1013.7 |
| 20260505172007 | 13 | 307 | 3.2 | 12.9 | 0.00 | 0.00 | 0.00 | 64 | 1013.8 |
| 20260505171006 | 13 | 276 | 4.8 | 12.9 | 0.00 | 0.00 | 0.00 | 63 | 1013.8 |
| 20260505170006 | 13 | 321 | 6.4 | 14.5 | 0.00 | 0.00 | 0.00 | 63 | 1013.9 |
| 20260505165006 | 14 | 345 | 6.4 | 14.5 | 0.00 | 0.00 | 0.00 | 62 | 1013.8 |
| 20260505164005 | 14 | 347 | 8.0 | 19.3 | 0.00 | 0.00 | 0.00 | 63 | 1013.8 |
| 20260505163009 | 14 | 18 | 4.8 | 14.5 | 0.00 | 0.00 | 0.00 | 63 | 1013.8 |
| 20260505161006 | 14 | 315 | 6.4 | 14.5 | 0.00 | 0.00 | 0.00 | 61 | 1013.7 |
| 20260505153006 | 15 | 63 | 3.2 | 14.5 | 0.00 | 0.00 | 0.00 | 59 | 1013.8 |
| 20260505152005 | 15 | 300 | 4.8 | 11.3 | 0.00 | 0.00 | 0.00 | 59 | 1013.9 |
| 20260505125006 | 15 | 333 | 6.4 | 17.7 | 0.00 | 0.00 | 0.00 | 54 | 1014.3 |
| 20260505124005 | 15 | 327 | 8.0 | 17.7 | 0.00 | 0.00 | 0.00 | 54 | 1014.3 |
| 20260505123006 | 16 | 299 | 4.8 | 16.1 | 0.00 | 0.00 | 0.00 | 54 | 1014.2 |
| 20260505121005 | 15 | 322 | 6.4 | 14.5 | 0.00 | 0.00 | 0.00 | 57 | 1014.3 |
| 20260505120007 | 15 | 343 | 4.8 | 9.7 | 0.00 | 0.00 | 0.00 | 55 | 1014.3 |
| 20260505114006 | 15 | 309 | 4.8 | 12.9 | 0.00 | 0.00 | 0.00 | 59 | 1014.3 |
| 20260505113005 | 14 | 307 | 4.8 | 12.9 | 0.00 | 0.00 | 0.00 | 60 | 1014.4 |
| 20260505112006 | 14 | 311 | 4.8 | 12.9 | 0.00 | 0.00 | 0.00 | 60 | 1014.5 |
| 20260505111006 | 15 | 310 | 4.8 | 14.5 | 0.00 | 0.00 | 0.00 | 58 | 1014.5 |
| 20260505102005 | 13 | 8 | 4.8 | 14.5 | 0.00 | 0.00 | 0.00 | 64 | 1014.8 |
| 20260505101006 | 13 | 334 | 4.8 | 12.9 | 0.00 | 0.00 | 0.00 | 65 | 1015.1 |
| 20260505095006 | 13 | 311 | 3.2 | 9.7 | 0.00 | 0.00 | 0.00 | 66 | 1015.1 |
| 20260505094006 | 12 | 352 | 3.2 | 11.3 | 0.00 | 0.00 | 0.00 | 70 | 1015.1 |
| 20260505093006 | 12 | 306 | 1.6 | 8.0 | 0.00 | 0.00 | 0.00 | 71 | 1015.1 |
| 20260505092006 | 12 | 266 | 4.8 | 9.7 | 0.00 | 0.00 | 0.00 | 70 | 1015.2 |
| 20260505091005 | 12 | 313 | 3.2 | 12.9 | 0.00 | 0.00 | 0.00 | 70 | 1015.3 |
| 20260505090017 | 12 | 328 | 3.2 | 11.3 | 0.00 | 0.00 | 0.00 | 71 | 1015.4 |
| 20260505085005 | 11 | 234 | 3.2 | 9.7 | 0.00 | 0.00 | 0.00 | 74 | 1015.4 |
| 20260505083006 | 11 | 26 | 4.8 | 12.9 | 0.00 | 0.00 | 0.00 | 75 | 1015.6 |
| 20260505082005 | 11 | 286 | 3.2 | 14.5 | 0.00 | 0.00 | 0.00 | 78 | 1015.6 |
| 20260505081005 | 11 | 285 | 3.2 | 9.7 | 0.00 | 0.00 | 0.00 | 78 | 1015.6 |
| 20260505080005 | 10 | 339 | 1.6 | 6.4 | 0.00 | 0.00 | 0.00 | 80 | 1015.6 |
| 20260505075005 | 10 | 278 | 1.6 | 6.4 | 0.00 | 0.00 | 0.00 | 80 | 1015.8 |
| 20260505074006 | 10 | 278 | 1.6 | 8.0 | 0.00 | 0.00 | 0.00 | 80 | 1015.6 |
| 20260505073005 | 10 | 269 | 3.2 | 8.0 | 0.00 | 0.00 | 0.00 | 81 | 1015.5 |
| 20260505072006 | 10 | 331 | 1.6 | 8.0 | 0.00 | 0.00 | 0.00 | 82 | 1015.5 |
| 20260505071006 | 10 | 315 | 1.6 | 6.4 | 0.00 | 0.00 | 0.00 | 83 | 1015.4 |
| 20260505070006 | 10 | 312 | 0.0 | 3.2 | 0.00 | 0.00 | 0.00 | 84 | 1015.5 |
| 20260505064007 | 9 | 329 | 0.0 | 0.0 | 0.00 | 0.00 | 0.00 | 85 | 1015.7 |
| 20260505063006 | 8 | 127 | 0.0 | 1.6 | 0.00 | 0.00 | 0.00 | 86 | 1015.7 |
| 20260505062005 | 8 | 120 | 0.0 | 0.0 | 0.00 | 0.00 | 0.00 | 86 | 1015.8 |
| 20260505061006 | 8 | 120 | 0.0 | 1.6 | 0.00 | 0.00 | 0.00 | 87 | 1015.8 |
| 20260505055006 | 8 | 127 | 0.0 | 3.2 | 0.00 | 0.00 | 0.00 | 86 | 1015.7 |
| 20260505054005 | 8 | 110 | 0.0 | 0.0 | 0.00 | 0.00 | 0.00 | 86 | 1015.8 |
| 20260505052005 | 8 | 349 | 0.0 | 1.6 | 0.00 | 0.00 | 0.00 | 84 | 1015.7 |
| 20260505050959 | 8 | 349 | 0.0 | 1.6 | 0.00 | 0.00 | 0.00 | 84 | 1015.7 |
| 20260505035957 | 7 | 332 | 0.0 | 0.0 | 0.00 | 0.00 | 0.00 | 89 | 1015.3 |
| 20260505034957 | 8 | 332 | 0.0 | 0.0 | 0.00 | 0.00 | 0.00 | 89 | 1015.3 |
| 20260505033957 | 8 | 332 | 0.0 | 1.6 | 0.00 | 0.00 | 0.00 | 89 | 1015.4 |
| 20260505032956 | 8 | 21 | 0.0 | 0.0 | 0.00 | 0.00 | 0.00 | 89 | 1015.4 |
| 20260505031957 | 8 | 30 | 0.0 | 0.0 | 0.00 | 0.00 | 0.00 | 89 | 1015.5 |
| 20260505030957 | 8 | 30 | 0.0 | 1.6 | 0.00 | 0.00 | 0.00 | 90 | 1015.5 |
| 20260505023954 | 8 | 329 | 0.0 | 1.6 | 0.00 | 0.00 | 0.00 | 91 | 1015.7 |
| 20260505022955 | 8 | 202 | 0.0 | 0.0 | 0.00 | 0.00 | 0.00 | 91 | 1015.7 |
| 20260505022003 | 7 | 203 | 0.0 | 0.0 | 0.00 | 0.00 | 0.00 | 91 | 1015.8 |
| 20260505021001 | 7 | 203 | 0.0 | 0.0 | 0.00 | 0.00 | 0.00 | 91 | 1015.8 |
| 20260505015959 | 7 | 203 | 0.0 | 0.0 | 0.00 | 0.00 | 0.00 | 90 | 1015.8 |
| 20260505014957 | 7 | 203 | 0.0 | 0.0 | 0.00 | 0.00 | 0.00 | 90 | 1015.9 |
| 20260505013958 | 7 | 202 | 0.0 | 3.2 | 0.00 | 0.00 | 0.00 | 90 | 1015.9 |
| 20260505011954 | 7 | 155 | 0.0 | 0.0 | 0.00 | 0.00 | 0.00 | 90 | 1016.0 |
| 20260505010959 | 7 | 155 | 0.0 | 0.0 | 0.00 | 0.00 | 0.00 | 90 | 1016.0 |
| 20260505005955 | 7 | 123 | 0.0 | 1.6 | 0.00 | 0.05 | 0.00 | 90 | 1015.9 |
| 20260505004958 | 7 | 123 | 0.0 | 0.0 | 0.00 | 0.05 | 0.00 | 90 | 1016.0 |
| 20260505004001 | 7 | 123 | 0.0 | 4.8 | 0.00 | 0.05 | 0.00 | 89 | 1016.2 |
| 20260505002953 | 8 | 134 | 0.0 | 1.6 | 0.00 | 0.05 | 0.00 | 90 | 1016.3 |
| 20260505001954 | 8 | 10 | 0.0 | 0.0 | 0.00 | 0.05 | 0.00 | 90 | 1016.4 |
| 20260505000951 | 7 | 10 | 0.0 | 0.0 | 0.00 | 0.05 | 0.00 | 90 | 1016.4 |
| 20260504235949 | 7 | 10 | 0.0 | 0.0 | 0.00 | 0.05 | 0.00 | 89 | 1016.6 |
| 20260504234955 | 8 | 10 | 0.0 | 0.0 | 0.00 | 0.05 | 0.00 | 89 | 1016.6 |
| 20260504232948 | 8 | 10 | 0.0 | 1.6 | 0.00 | 0.05 | 0.00 | 88 | 1016.6 |
| 20260504225947 | 8 | 17 | 0.0 | 0.0 | 0.00 | 0.05 | 0.05 | 87 | 1016.6 |
| 20260504224947 | 8 | 17 | 0.0 | 1.6 | 0.00 | 0.05 | 0.05 | 87 | 1016.5 |
| 20260504223947 | 9 | 16 | 0.0 | 1.6 | 0.00 | 0.08 | 0.05 | 86 | 1016.6 |
| 20260504222947 | 9 | 17 | 0.0 | 1.6 | 0.00 | 0.08 | 0.05 | 86 | 1016.7 |
| 20260504220947 | 9 | 17 | 0.0 | 0.0 | 0.00 | 0.08 | 0.05 | 86 | 1016.6 |
| 20260504214945 | 10 | 339 | 0.0 | 1.6 | 0.00 | 0.08 | 0.05 | 85 | 1016.8 |